Regional Weather Roundup
Issued by NWS

Home | Current Version | Previous Version | Graphics & Text | Print | Product List | Glossary On
Versions: 1 2 3 4 5 6 7 8 9 10 11 12 13 14 15 16 17 18 19 20 21 22 23 24 25 26 27 28 29 30 31 32 33 34 35 36 37 38 39 40 41 42 43 44 45 46 47 48 49 50
000
ASUS45 KBOI 170210
RWRID
WEATHER ROUNDUP FOR IDAHO
NATIONAL WEATHER SERVICE BOISE ID
700 PM MST TUE DEC 16 2014

NOTE: "FAIR" INDICATES FEW OR NO CLOUDS BELOW 12000 FEET
WITH NO SIGNIFICANT WEATHER AND/OR OBSTRUCTIONS TO VISIBILITY

IDZ012-014-170300-
SOUTHWEST IDAHO


CITY           SKY/WX    TMP DP  RH WIND       PRES   REMARKS
BOISE          CLOUDY    38  33  82 S13       29.97S WCI  30
CALDWELL       CLOUDY    39  28  65 E10       29.99R WCI  32
MOUNTAIN HOME  CLOUDY    36  34  91 E16       29.99R WCI  26
$$

IDZ016-017-170300-
SOUTHCENTRAL IDAHO


CITY           SKY/WX    TMP DP  RH WIND       PRES   REMARKS
BURLEY         CLOUDY    34  31  88 CALM      29.98R
JEROME         CLOUDY    33  31  92 E8        29.99R WCI  26
TWIN FALLS     CLOUDY    35  31  85 E6        29.98S WCI  30
$$

IDZ019>023-170300-
SOUTHEAST IDAHO


CITY           SKY/WX    TMP DP  RH WIND       PRES   REMARKS
IDAHO FALLS    LGT SNOW  32  30  92 CALM      29.99S FOG
POCATELLO      LGT SNOW  33  33 100 CALM      30.00R FOG
REXBURG        LGT SNOW  31  31 100 CALM      29.99R FOG
$$

IDZ006-010-011-018-031-032-170300-
CENTRAL IDAHO MOUNTAINS


CITY           SKY/WX    TMP DP  RH WIND       PRES   REMARKS
MCCALL         CLOUDY    30  28  92 CALM      29.90S
HAILEY         LGT SNOW  28  28 100 CALM      29.98S
STANLEY          N/A     26  21  81 CALM      29.93R
SALMON         CLOUDY    27  25  93 CALM      29.99R
CHALLIS        LGT SNOW  27  26  96 CALM      29.97R FOG
$$

IDZ002-004-006-007-026-170300-
NORTHERN IDAHO


CITY           SKY/WX    TMP DP  RH WIND       PRES   REMARKS
LEWISTON       CLOUDY    40  34  79 NE3       29.95R
LOWELL           N/A     36  33  89 N3        30.00S
COEUR D`ALENE  CLOUDY    32  28  86 N10       29.95S WCI  24
MULLAN PASS    CLOUDY    24  20  84 S6        29.85S WCI  17
$$


USA.gov is the U.S. government's official web portal to all federal, state and local government web resources and services.